Regional Weather Roundup
Issued by NWS Little Rock, AR

Home | Current Version | Previous Version | Text Only | Print | Product List | Glossary Off
Versions: 1 2 3 4 5 6 7 8 9 10 11 12 13 14 15 16 17 18 19 20 21 22 23 24 25 26 27 28 29 30 31 32 33 34 35 36 37 38 39 40 41 42 43 44 45 46 47 48 49 50

000
ASUS44 KLZK 210405
RWRLZK

WEATHER ROUNDUP FOR ARKANSAS
NATIONAL WEATHER SERVICE LITTLE ROCK AR
1100 PM CDT SAT SEP 20 2014

NOTE: "FAIR" INDICATES FEW OR NO CLOUDS BELOW 12,000 FEET WITH NO
SIGNIFICANT WEATHER AND/OR OBSTRUCTIONS TO VISIBILITY.

ARZ001-003-010-029-210500-
NORTHWEST ARKANSAS

CITY           SKY/WX    TMP DP  RH WIND       PRES   REMARKS
FAYETTEVILLE   CLEAR     67  66  97 S3        30.06R
FORT SMITH     CLEAR     75  69  81 CALM      30.01R
HARRISON       CLEAR     68  66  93 S3        30.05S
BENTONVILLE    MOCLDY    70  64  83 S3        30.05S
ROGERS         MOCLDY    72  65  78 S6        30.06S
SILOAM SPGS    PTCLDY    70  63  78 SE3       30.06S
HIGHFILL       PTCLDY    70  66  87 SW7       30.05R
$$

ARZ004-005-016-210500-
NORTH CENTRAL ARKANSAS

CITY           SKY/WX    TMP DP  RH WIND       PRES   REMARKS
BATESVILLE     CLEAR     73  66  78 CALM      30.01R
FLIPPIN        CLEAR     73  64  73 SW3       30.02S
MTN HOME       CLEAR     73  68  84 SW5       30.02S
$$

ARZ040-041-210500-
WEST CENTRAL ARKANSAS

CITY           SKY/WX    TMP DP  RH WIND       PRES   REMARKS
MENA           CLEAR     70  68  94 CALM      30.06S
MOUNT IDA      CLEAR     70  68  93 CALM      30.02S FOG
$$

ARZ009-017-025-026-028-210500-
NORTHEAST ARKANSAS

CITY           SKY/WX    TMP DP  RH WIND       PRES   REMARKS
CORNING          N/A     72  70  94 S7        29.99S
JONESBORO      CLEAR     72  68  87 CALM      29.99S
NEWPORT        CLEAR     73  67  81 S13       30.01R
WALNUT RIDGE   CLEAR     72  57  60 S6        29.98F
BLYTHEVILLE    CLEAR     74  70  87 S6        30.00S
$$

ARZ022-023-033-042-044-210500-
CENTRAL ARKANSAS

CITY           SKY/WX    TMP DP  RH WIND       PRES   REMARKS
LITTLE ROCK    CLEAR     75  68  78 CALM      30.02R
N LITTLE ROCK  CLEAR     74  68  82 CALM      30.02R
JACKSONVILLE   CLEAR     70  68  92 CALM      30.01S
SEARCY         CLEAR     70  69  96 CALM      30.02R
HOT SPRINGS    CLEAR     72  68  87 CALM      30.03R
RUSSELLVILLE   CLEAR     70  68  93 CALM      30.02R
CLINTON        FAIR      70  68  94 CALM      30.04R FOG
$$

ARZ036-210500-
EAST ARKANSAS

CITY           SKY/WX    TMP DP  RH WIND       PRES   REMARKS
WEST MEMPHIS   CLEAR     73  69  87 S3        30.00R
$$

ARZ050-053-066-070-073-210500-
SOUTHWEST ARKANSAS

CITY           SKY/WX    TMP DP  RH WIND       PRES   REMARKS
ARKADELPHIA    FAIR      73  73 100 CALM      30.02R
CAMDEN         CLEAR     72  68  88 CALM      30.01S FOG
TEXARKANA      CLEAR     74  70  87 CALM      30.02R
EL DORADO      CLEAR     72  70  93 CALM      30.02R
DE QUEEN       FOG       70  70 100 CALM      30.01R VSB 3/4
$$

ARZ056-057-069-210500-
SOUTHEAST ARKANSAS

CITY           SKY/WX    TMP DP  RH WIND       PRES   REMARKS
PINE BLUFF     CLEAR     72  67  84 CALM      30.01S
STUTTGART      CLEAR     73  66  78 CALM      30.02S
MONTICELLO     MOCLDY    73  68  84 CALM      30.02R

$$





USA.gov is the U.S. government's official web portal to all federal, state and local government web resources and services.